When you browse on this site, cookies collect data to enhance your experience and personalize the content and advertising you see.
Visit our Privacy Policy to learn more. By continuing to use the site, you agree to this use of cookies and data.
  • Em Portugal
  • Lista de países
  • Para 7 dias
  • Temperatura da água
  • Mapas de satélite
  • Mapa do tempo
  • Widgets de tempo
  • user-avatar
    Iniciar Sessão

    Previsão horária em Ropotamo

    Hoje, 25 Maio, Sábado

    Tempo Temperatura Precipitação Vento Pressão Humidade
    00:00 +14°C° 0 mm 3 m/s 753 mmHg 86%
    01:00 +14°C° 0 mm 4 m/s 754 mmHg 86%
    02:00 +13°C° 0 mm 3 m/s 753 mmHg 86%
    03:00 +13°C° 0 mm 3 m/s 754 mmHg 85%
    04:00 +13°C° 0 mm 4 m/s 754 mmHg 85%
    05:00 +13°C° 0 mm 4 m/s 754 mmHg 84%
    06:00 +15°C° 0 mm 4 m/s 754 mmHg 78%
    07:00 +18°C° 0 mm 4 m/s 755 mmHg 72%
    08:00 +19°C° 0 mm 4 m/s 755 mmHg 65%
    09:00 +21°C° 0 mm 4 m/s 755 mmHg 62%
    10:00 +22°C° 0 mm 3 m/s 755 mmHg 59%
    11:00 +24°C° 0 mm 3 m/s 755 mmHg 55%
    12:00 +24°C° 0.2 mm 3 m/s 755 mmHg 59%
    13:00 +24°C° 0.2 mm 2 m/s 755 mmHg 62%
    14:00 +24°C° 0.2 mm 2 m/s 755 mmHg 66%
    15:00 +24°C° 0.2 mm 2 m/s 755 mmHg 67%
    16:00 +24°C° 0.2 mm 2 m/s 755 mmHg 68%
    17:00 +24°C° 0.2 mm 2 m/s 755 mmHg 69%
    18:00 +21°C° 0 mm 2 m/s 755 mmHg 72%
    19:00 +21°C° 0 mm 1 m/s 755 mmHg 76%
    20:00 +19°C° 0 mm 1 m/s 755 mmHg 79%
    21:00 +18°C° 0 mm 2 m/s 756 mmHg 80%
    22:00 +17°C° 0 mm 2 m/s 756 mmHg 82%
    23:00 +17°C° 0 mm 2 m/s 756 mmHg 84%

    Amanhã, 26 Maio, Domingo

    Tempo Temperatura Precipitação Vento Pressão Humidade
    00:00 +17°C° 0 mm 2 m/s 757 mmHg 84%
    01:00 +16°C° 0 mm 3 m/s 757 mmHg 85%
    02:00 +16°C° 0 mm 3 m/s 757 mmHg 85%
    03:00 +16°C° 0 mm 3 m/s 757 mmHg 85%
    04:00 +16°C° 0 mm 3 m/s 757 mmHg 84%
    05:00 +16°C° 0 mm 3 m/s 757 mmHg 84%
    06:00 +18°C° 0 mm 3 m/s 758 mmHg 77%
    07:00 +20°C° 0 mm 3 m/s 758 mmHg 71%
    08:00 +23°C° 0 mm 2 m/s 758 mmHg 65%
    09:00 +24°C° 0 mm 2 m/s 758 mmHg 60%
    10:00 +26°C° 0 mm 1 m/s 758 mmHg 56%
    11:00 +27°C° 0 mm 1 m/s 759 mmHg 51%
    12:00 +27°C° 0 mm 1 m/s 758 mmHg 52%
    13:00 +27°C° 0 mm 2 m/s 758 mmHg 52%
    14:00 +28°C° 0 mm 3 m/s 758 mmHg 52%
    15:00 +27°C° 0 mm 3 m/s 758 mmHg 55%
    16:00 +26°C° 0 mm 3 m/s 758 mmHg 57%
    17:00 +26°C° 0 mm 4 m/s 758 mmHg 60%
    18:00 +24°C° 0 mm 3 m/s 758 mmHg 66%
    19:00 +21°C° 0 mm 3 m/s 758 mmHg 72%
    20:00 +19°C° 0 mm 3 m/s 758 mmHg 78%
    21:00 +19°C° 0 mm 3 m/s 759 mmHg 80%
    22:00 +19°C° 0 mm 3 m/s 759 mmHg 82%
    23:00 +18°C° 0 mm 2 m/s 759 mmHg 84%

    Depois de amanhã, 27 Maio, Segunda-feira

    Tempo Temperatura Precipitação Vento Pressão Humidade
    00:00 +18°C° 0 mm 2 m/s 759 mmHg 85%
    01:00 +19°C° 0 mm 1 m/s 759 mmHg 86%
    02:00 +18°C° 0 mm 1 m/s 759 mmHg 87%
    03:00 +18°C° 0 mm 1 m/s 759 mmHg 87%
    04:00 +18°C° 0 mm 1 m/s 759 mmHg 87%
    05:00 +18°C° 0 mm 1 m/s 759 mmHg 87%
    06:00 +20°C° 0 mm 1 m/s 759 mmHg 79%
    07:00 +22°C° 0 mm 1 m/s 759 mmHg 72%
    08:00 +24°C° 0 mm 1 m/s 759 mmHg 65%
    09:00 +25°C° 0 mm 2 m/s 759 mmHg 60%
    10:00 +25°C° 0 mm 3 m/s 759 mmHg 56%
    11:00 +26°C° 0 mm 4 m/s 759 mmHg 52%
    12:00 +26°C° 0 mm 4 m/s 759 mmHg 52%
    13:00 +26°C° 0 mm 4 m/s 759 mmHg 53%
    14:00 +26°C° 0 mm 4 m/s 759 mmHg 54%
    15:00 +25°C° 0 mm 4 m/s 758 mmHg 57%
    16:00 +25°C° 0 mm 4 m/s 758 mmHg 60%
    17:00 +23°C° 0 mm 4 m/s 758 mmHg 63%
    18:00 +21°C° 0 mm 4 m/s 758 mmHg 72%
    19:00 +19°C° 0 mm 3 m/s 758 mmHg 80%
    20:00 +17°C° 0 mm 3 m/s 758 mmHg 89%
    21:00 +17°C° 0 mm 2 m/s 758 mmHg 89%
    22:00 +16°C° 0 mm 2 m/s 758 mmHg 90%
    23:00 +16°C° 0 mm 1 m/s 758 mmHg 90%

    28 Maio, Terça-feira

    Tempo Temperatura Precipitação Vento Pressão Humidade
    00:00 +16°C° 0 mm 1 m/s 758 mmHg 90%
    01:00 +16°C° 0 mm 1 m/s 757 mmHg 89%
    02:00 +15°C° 0 mm 1 m/s 757 mmHg 89%
    03:00 +15°C° 0 mm 1 m/s 757 mmHg 89%
    04:00 +15°C° 0 mm 1 m/s 757 mmHg 89%
    05:00 +15°C° 0 mm 1 m/s 756 mmHg 89%
    06:00 +19°C° 0 mm 1 m/s 756 mmHg 82%
    07:00 +21°C° 0 mm 1 m/s 756 mmHg 75%
    08:00 +23°C° 0 mm 1 m/s 756 mmHg 68%
    09:00 +25°C° 0 mm 2 m/s 756 mmHg 63%
    10:00 +26°C° 0 mm 2 m/s 756 mmHg 59%
    11:00 +28°C° 0 mm 3 m/s 756 mmHg 54%
    12:00 +29°C° 0 mm 3 m/s 755 mmHg 54%
    13:00 +29°C° 0 mm 4 m/s 755 mmHg 53%
    14:00 +29°C° 0 mm 4 m/s 755 mmHg 53%
    15:00 +29°C° 0 mm 4 m/s 754 mmHg 56%
    16:00 +28°C° 0 mm 4 m/s 754 mmHg 59%
    17:00 +28°C° 0 mm 4 m/s 754 mmHg 61%
    18:00 +26°C° 0 mm 4 m/s 754 mmHg 68%
    19:00 +25°C° 0 mm 4 m/s 754 mmHg 75%
    20:00 +22°C° 0 mm 3 m/s 754 mmHg 81%
    21:00 +21°C° 0 mm 3 m/s 754 mmHg 77%
    22:00 +21°C° 0 mm 3 m/s 754 mmHg 72%
    23:00 +21°C° 0 mm 3 m/s 754 mmHg 67%

    29 Maio, Quarta-feira

    Tempo Temperatura Precipitação Vento Pressão Humidade
    00:00 +21°C° 0 mm 3 m/s 754 mmHg 59%
    01:00 +21°C° 0 mm 4 m/s 754 mmHg 51%
    02:00 +21°C° 0 mm 4 m/s 754 mmHg 44%
    03:00 +20°C° 0 mm 4 m/s 754 mmHg 50%
    04:00 +20°C° 0 mm 3 m/s 754 mmHg 57%
    05:00 +19°C° 0 mm 3 m/s 754 mmHg 63%
    06:00 +21°C° 0 mm 3 m/s 754 mmHg 62%
    07:00 +24°C° 0 mm 3 m/s 754 mmHg 60%
    08:00 +25°C° 0 mm 3 m/s 755 mmHg 59%
    09:00 +27°C° 0 mm 3 m/s 755 mmHg 55%
    10:00 +28°C° 0 mm 2 m/s 755 mmHg 51%
    11:00 +30°C° 0 mm 2 m/s 755 mmHg 47%
    12:00 +30°C° 0 mm 2 m/s 755 mmHg 46%
    13:00 +31°C° 0 mm 2 m/s 755 mmHg 44%
    14:00 +31°C° 0 mm 3 m/s 755 mmHg 43%
    15:00 +31°C° 0 mm 3 m/s 755 mmHg 45%
    16:00 +31°C° 0 mm 3 m/s 755 mmHg 48%
    17:00 +30°C° 0 mm 3 m/s 755 mmHg 50%
    18:00 +28°C° 0 mm 3 m/s 755 mmHg 55%
    19:00 +26°C° 0 mm 3 m/s 755 mmHg 61%
    20:00 +22°C° 0 mm 4 m/s 755 mmHg 66%
    21:00 +21°C° 0 mm 3 m/s 756 mmHg 67%
    22:00 +20°C° 0 mm 3 m/s 756 mmHg 68%
    23:00 +19°C° 0 mm 2 m/s 756 mmHg 69%

    30 Maio, Quinta-feira

    Tempo Temperatura Precipitação Vento Pressão Humidade
    00:00 +19°C° 0 mm 2 m/s 756 mmHg 69%
    01:00 +19°C° 0 mm 2 m/s 756 mmHg 70%
    02:00 +18°C° 0 mm 2 m/s 757 mmHg 71%
    03:00 +18°C° 0 mm 2 m/s 757 mmHg 71%
    04:00 +18°C° 0 mm 2 m/s 757 mmHg 72%
    05:00 +18°C° 0 mm 2 m/s 757 mmHg 73%
    06:00 +20°C° 0 mm 2 m/s 757 mmHg 70%
    07:00 +23°C° 0 mm 2 m/s 758 mmHg 68%
    08:00 +25°C° 0 mm 2 m/s 758 mmHg 65%
    09:00 +27°C° 0 mm 3 m/s 758 mmHg 61%
    10:00 +28°C° 0 mm 3 m/s 758 mmHg 58%
    11:00 +29°C° 0 mm 3 m/s 758 mmHg 54%
    12:00 +29°C° 0 mm 3 m/s 758 mmHg 53%
    13:00 +30°C° 0 mm 3 m/s 758 mmHg 53%
    14:00 +30°C° 0 mm 4 m/s 758 mmHg 53%
    15:00 +29°C° 0 mm 3 m/s 758 mmHg 55%
    16:00 +28°C° 0 mm 3 m/s 758 mmHg 57%
    17:00 +28°C° 0 mm 2 m/s 758 mmHg 59%
    18:00 +26°C° 0 mm 2 m/s 758 mmHg 66%
    19:00 +24°C° 0 mm 1 m/s 758 mmHg 72%
    20:00 +20°C° 0 mm 0 m/s 758 mmHg 78%
    21:00 +19°C° 0 mm 0 m/s 758 mmHg 77%
    22:00 +19°C° 0 mm 0 m/s 758 mmHg 76%
    23:00 +19°C° 0 mm 0 m/s 758 mmHg 75%
    Mostrar mais